Flag for Germany Weather past 2 weeks in Detmold, North Rhine-Westphalia, Germany

Now
41 °F

Overcast.


Feels Like: 35 °F
Forecast: 32 / 37 °F
Wind: 10 mph from Southwest

Location: Bad Lippspringe

Current Time: Jan 28, 2015 at 2:07:53 PM

Latest Report: Jan 28, 2015 at 1:00 PM


Visibility: 31 mi

Pressure: 29.72 "Hg

Humidity: 74%

Dew point: 34 °F

Location of DetmoldLocation

Historic Weather in Detmold — Graph

°F

Detmold temperature yesterday

Maximum temperature yesterday: 40 °F (at 4:00 PM)
Minimum temperature yesterday: 35 °F (at 7:00 AM)
Average temperature yesterday: 37 °F

Past Weeks' High & Low Weather Summary

 TemperatureHumidityPressure
High53 °F (Jan 13, 1:00 PM)100% (Jan 24, 7:00 PM)30.39 "Hg (Jan 24, 7:00 PM)
Low25 °F (Jan 24, 4:00 AM)58% (Jan 13, 1:00 PM)29.47 "Hg (Jan 15, 4:00 PM)
Average36 °F85%29.98 "Hg
* Reported Jan 13 1:00 PM — Jan 28 1:00 PM, Detmold, Weather by CustomWeather, © 2014

Note: Actual official high and low records may vary slightly from our data, if they occured in-between our weather recording intervals... More about our weather records

Advertising

Detmold weather history for previous 24 hours

 ConditionsComfort  
Time TempWeatherWind HumidityBarometerVisibility
1:00 PM
Jan 28
41 °FOvercast.10 mph74%29.72 "Hg31 mi
12:00 PM41 °FOvercast.8 mph79%29.78 "Hg22 mi
11:00 AM40 °FOvercast.7 mph81%29.85 "Hg19 mi
10:00 AM39 °FOvercast.7 mph82%29.89 "Hg19 mi
9:00 AM38 °FOvercast.6 mph85%29.93 "Hg12 mi
8:00 AM38 °FOvercast.5 mph83%29.96 "Hg28 mi
7:00 AM38 °FOvercast.5 mph84%29.98 "Hg22 mi
6:00 AM38 °FOvercast.5 mph84%30.01 "Hg28 mi
5:00 AM38 °FLow clouds.3 mph92%30.04 "Hg25 mi
4:00 AM38 °FLow clouds.3 mph97%30.08 "HgN/A
3:00 AM38 °FLow clouds.3 mph97%30.10 "HgN/A
2:00 AM38 °FLow clouds.5 mph97%30.11 "HgN/A
1:00 AM38 °FLow clouds.3 mph98%30.12 "HgN/A
12:00 AM38 °FLow clouds.3 mph97%30.14 "HgN/A
11:00 PM
Jan 27
38 °FLight freezing rain. Low clouds.3 mph98%30.14 "Hg3 mi
10:00 PM37 °FLow clouds.1 mph97%30.15 "HgN/A
9:00 PM37 °FLow clouds.2 mph97%30.16 "Hg13 mi
8:00 PM36 °FOvercast.1 mph98%30.16 "HgN/A
7:00 PM36 °FLow clouds.1 mph97%30.16 "Hg17 mi
6:00 PM35 °FLow clouds.1 mph97%30.15 "HgN/A
5:00 PM36 °FDrizzle. Overcast.2 mph95%30.14 "Hg25 mi
4:00 PM40 °FOvercast.5 mph88%30.12 "Hg18 mi
3:00 PM40 °FOvercast.3 mph92%30.12 "Hg14 mi
2:00 PM39 °FLow clouds.5 mph92%30.12 "Hg12 mi
Weather by CustomWeather, © 2014

See weather overviewHow to use our weather pages